Regional Weather Roundup
Issued by NWS

Home | Current Version | Previous Version | Graphics & Text | Print | Product List | Glossary On
Versions: 1 2 3 4 5 6 7 8 9 10 11 12 13 14 15 16 17 18 19 20 21 22 23 24 25 26 27
000
ASUS45 KSLC 230810
RWRUT

UTAH REGIONAL WEATHER ROUNDUP
NATIONAL WEATHER SERVICE SALT LAKE CITY UT
200 AM MDT WED AUG 23 2017

UTZ001>011-023>025-230900-

NORTHERN UTAH

CITY           SKY/WX    TMP DP  RH WIND       PRES   REMARKS
BRIGHAM CITY   MOCLDY    72  50  44 NW7       30.17S
HILL AFB       CLOUDY    71  47  41 E8        30.18F
LOGAN          MOCLDY    64  51  62 N10       30.17S
OGDEN          CLOUDY    73  49  42 S6        30.15F
SALT LAKE CITY MOCLDY    75  51  43 E8        30.14F
TOOELE VALLEY  PTCLDY    64  55  72 S15       30.16F
WENDOVER       CLEAR     70  50  49 W9        30.15F
HEBER CITY     CLOUDY    63  50  63 CALM      30.27S
WEST JORDAN    MOCLDY    71  55  57 SW8       30.18F

$$

UTZ011>015-024>027-230900-

CENTRAL/NORTHEAST UTAH

CITY           SKY/WX    TMP DP  RH WIND       PRES   REMARKS
PROVO AIRPORT  MOCLDY    65  56  72 SE10      30.19S
MOAB/CANYONLAN CLEAR     71  48  43 W3        30.17R
DELTA          PTCLDY    64  46  52 NE6       30.18S
PRICE          CLOUDY    62  54  74 N10       30.30F
RICHFIELD      CLEAR     55  52  88 CALM      30.29S
ROOSEVELT      PTCLDY    68  43  40 N7        30.25F
VERNAL         CLEAR     60  47  61 SW3       30.24S

$$

UTZ013>016-019>022-027-230900-

SOUTHERN UTAH

CITY           SKY/WX    TMP DP  RH WIND       PRES   REMARKS
BRYCE CANYON   CLEAR     49  46  90 W8        30.42S
CEDAR CITY     CLEAR     64  44  48 CALM      30.26S
MILFORD        CLEAR     62  48  60 CALM      30.21S
ST GEORGE      CLOUDY    76  46  34 E6        30.06R
HANKSVILLE     PTCLDY    72  43  35 N8        30.19R
KANAB          PTCLDY    66  50  55 N7        30.26S
BLANDING       PTCLDY    66  42  42 N10       30.34S

$$

REGIONAL REPORTS     COLORADO/ARIZONA

CITY           SKY/WX    TMP DP  RH WIND       PRES   REMARKS
CRAIG, CO      CLOUDY    52  41  66 CALM      30.32R
GRAND JUNCTION CLOUDY    69  49  48 E12       30.22S
RIFLE, CO      CLOUDY    59  43  55 CALM      30.29R
MONTROSE, CO   CLOUDY    57  47  69 S3        30.32S
CORTEZ, CO     PTCLDY    54  49  83 CALM      30.30S
COLORADO CITY    N/A     61  52  72 S5        30.24S
PAGE, AZ       CLEAR     75  46  35 SW3       30.13S
GRAND CANYON   CLEAR     52  48  86 NE7       30.34F
KINGMAN, AZ    CLEAR     69  48  47 CALM      30.08S
FLAGSTAFF, AZ  CLEAR     51  45  79 CALM      30.37S

$$

REGIONAL REPORTS    NEVADA/IDAHO/WYOMING

CITY           SKY/WX    TMP DP  RH WIND       PRES   REMARKS
LAS VEGAS, NV  MOCLDY    88  47  24 W3        29.96S
ELY, NY        CLOUDY    58  52  80 E9        30.31F
ELKO, NV       MOCLDY    62  50  64 W5        30.22S
POCATELLO, ID  CLEAR     69  47  45 VRB5      30.14R
BURLEY, ID     MOCLDY    73  48  41 S17       30.09R
FORT BRIDGER,    N/A     65  39  39 SW14      30.37S
EVANSTON, WY   CLOUDY    60  43  53 SW8       30.35S
ROCK SPRINGS,  CLOUDY    62  36  37 W8        30.30S
KEMMERER, WY     N/A     57  36  44 NW6       30.36R

$$




USA.gov is the U.S. government's official web portal to all federal, state and local government web resources and services.